Home > Weather > Seattle > Past weeks

Flag for U.S.A. Weather for the Past 2 Weeks in Seattle, Washington, U.S.A.

Now
41 °F

Clear.


Feels Like: 41 °F
Forecast: 45 / 59 °F
Wind: No wind

Location: Seattle Boeing Field

Current Time: Feb 8, 2016 at 12:43:00 AM

Latest Report: Feb 7, 2016 at 11:53 PM


Visibility: 10 mi

Pressure: 30.51 "Hg

Humidity: 93%

Dew point: 39 °F

Location of SeattleLocation

Historic Weather in Seattle — Graph

°F

Seattle Temperature Yesterday

Maximum temperature yesterday: 50 °F (at 1:53 PM)
Minimum temperature yesterday: 36 °F (at 2:53 AM)
Average temperature yesterday: 43 °F

High & Low Weather Summary for the Past Weeks

 TemperatureHumidityPressure
High57 °F (Jan 27, 1:53 PM)100% (Jan 24, 7:53 AM)30.57 "Hg (Jan 24, 7:53 AM)
Low35 °F (Feb 2, 7:53 AM)56% (Feb 2, 3:53 PM)29.60 "Hg (Jan 29, 8:53 AM)
Average46 °F84%30.15 "Hg
* Reported Jan 23 10:53 PM — Feb 7 10:53 PM, Seattle, Weather by CustomWeather, © 2016

Note: Actual official high and low records may vary slightly from our data, if they occured in-between our weather recording intervals... More about our weather records

Advertising

Seattle Weather History for the Previous 24 Hours

 ConditionsComfort  
Time TempWeatherWind HumidityBarometerVisibility
10:53 PM
Sun, Feb 7
43 °FClear.No wind89%30.51 "Hg10 mi
9:53 PM44 °FClear.No wind85%30.51 "Hg10 mi
8:53 PM45 °FClear.No wind82%30.52 "Hg10 mi
7:53 PM46 °FPassing clouds.No wind83%30.52 "Hg10 mi
6:53 PM47 °FPassing clouds.6 mph74%30.53 "Hg10 mi
5:53 PM49 °FPartly cloudy.5 mph69%30.53 "Hg10 mi
4:53 PM49 °FPartly sunny.5 mph66%30.54 "Hg10 mi
3:53 PM49 °FBroken clouds.7 mph71%30.54 "Hg10 mi
2:53 PM49 °FMostly cloudy.6 mph69%30.55 "Hg10 mi
1:53 PM50 °FOvercast.9 mph61%30.55 "Hg10 mi
12:53 PM48 °FMostly cloudy.7 mph68%30.56 "Hg10 mi
11:53 AM47 °FOvercast.3 mph71%30.57 "Hg10 mi
10:53 AM46 °FPartly sunny.No wind77%30.57 "Hg10 mi
9:53 AM42 °FPartly sunny.No wind89%30.56 "Hg10 mi
8:53 AM40 °FOvercast.No wind93%30.55 "Hg10 mi
7:53 AM37 °FMostly cloudy.6 mph96%30.55 "Hg10 mi
6:53 AM36 °FPassing clouds.No wind100%30.54 "Hg10 mi
5:53 AM36 °FPassing clouds.3 mph100%30.51 "Hg10 mi
4:53 AM37 °FLight snow. Clear.No wind96%30.52 "Hg10 mi
3:53 AM37 °FOvercast.No wind96%30.53 "Hg10 mi
2:53 AM36 °FPassing clouds.No wind100%30.54 "Hg10 mi
1:53 AM38 °FPassing clouds.No wind97%30.52 "Hg10 mi
12:53 AM39 °FClear.No wind93%30.50 "Hg10 mi
Weather by CustomWeather, © 2016

See weather overviewHow to use our weather pages